Hourly Data Report for November 20, 2020

VICTORIA UNIVERSITY CS
BRITISH COLUMBIA
Current Station Operator: ECCC - MSC

48°27'25.200" N
123°18'16.600" W
60.10 m
1018598
71783
WYJ

Download Data

Hourly Data (November 2020)
Hourly Data Report for November 20, 2020
TIME
LST
Temp Definition
°C
Dew Point Definition
°C
Rel Hum Definition
%
Precip. Amount Definition
mm

Wind Dir Definition
10's deg

Wind Spd Definition
km/h
Visibility Definition
km
Stn Press Definition
kPa
Hmdx Definition


Wind Chill Definition


Weather Definition


00:00 4.9 4.8 100 0.0 13 1   102.02     LegendNANA
01:00 5.4 5.3 100 0.0 0 1   102.05     LegendNANA
02:00 5.1 4.8 98 0.0 14 2   102.08     LegendNANA
03:00 5.9 5.9 100 0.0 12 2   102.14     LegendNANA
04:00 6.7 6.5 99 0.0 0 1   102.16     LegendNANA
05:00 6.3 6.2 99 0.0 9 2   102.13     LegendNANA
06:00 6.0 5.8 99 0.0 6 1   102.10     LegendNANA
07:00 6.2 6.1 99 0.0 7 3   102.12     LegendNANA
08:00 6.3 5.9 98 0.0 9 3   102.13     LegendNANA
09:00 6.9 6.8 99 0.3 10 3   102.15     LegendNANA
10:00 7.7 7.1 96 0.0 12 1   102.15     LegendNANA
11:00 8.4 6.8 89 0.2 14 2   102.14     LegendNANA
12:00 9.4 6.4 82 0.0 14 4   102.09     LegendNANA
13:00 9.1 6.6 84 0.0 15 3   102.05     LegendNANA
14:00 9.2 5.7 79 0.0 16 3   102.06     LegendNANA
15:00 8.4 6.1 86 0.0 12 2   102.03     LegendNANA
16:00 7.7 6.6 93 0.0 14 1   102.04     LegendNANA
17:00 8.0 7.6 98 0.0 13 1   102.05     LegendNANA
18:00 8.0 7.8 98 0.0 15 3   102.09     LegendNANA
19:00 8.3 7.8 97 0.0 16 2   102.12     LegendNANA
20:00 8.5 7.7 95 0.0 19 3   102.16     LegendNANA
21:00 8.1 8.1 100 0.3 18 5   102.21     LegendNANA
22:00 7.7 7.7 100 0.2 22 4   102.27     LegendNANA
23:00 6.2 6.1 100 0.0 20 2   102.29     LegendNANA

Notes on Data Quality.

Legend

  • E = Estimated
  • M = Missing
  • NA = Not Available*
  • [empty] = Indicates an unobserved value
Date modified: